THORAD DELTA 1 DEB, 9695

Orbit data source: Space-Track

THORAD DELTA 1 DEB, 9695 is space debris in LEO originally from a launch on Fri, 15 Nov 1974 UTC launched from the Air Force Western Test Range (AFWTR). Debris objects in space refer to the collection of defunct objects orbiting the Earth. Examples of debris include non-operational satellites, rocket bodies, and fragments generated from explosions, collisions, or faulty payload assembly.

Loading next visibility...
Identifier
9695, 1974-089DU
Orbit
LEO
Country
Flag of USUS
Related business
Manufacturer
Unknown
Mission
Spacecraft
Bus & Motor
Unknown
Mass
Unknown
Launch date (UTC)
1974-11-15 (52 years ago)
Launch vehicle
Unknown
Launch site
Air Force Western Test Range (AFWTR)
Object type
Payload
Rocket body
Debris
Shape & HBR
Unknown shape, 0.1 m
Radar Cross Section
Medium (>0.1 m² and <1 m²)

Expand to show TLE details & history
Last TLE update: 6 days ago

TLE from 6 days ago
0 THORAD DELTA 1 DEB
1 09695U 74089DU  26154.83207631  .00000810  00000-0  10362-2 0  9998
2 09695 103.0110 167.7434 0278361 327.7810  30.6568 13.52857541438536
Epoch: 2026-06-03T19:58Z
TLE epoch observation values (Epoch: 2026-06-03T19:58:11.393Z)
Latitude
0.00002°
Longitude
-24.08912°
Altitude
887.796 km
Speed
7.496 km/s
True Right ascension
11h 10m 58s
True Declination
0° 00' 00"
Sunlit
Object was in daylight at epoch
Visualization orbit readout
Latitude
Unknown
Longitude
Unknown
Altitude
Unknown
Speed
Unknown
Apparent Right ascension
Unknown
Apparent Declination
Unknown
Sunlit
N/A
Visualization observer readout
Local Sidereal Time
19:31:49
Azimuth
Unknown
Elevation
Unknown
Doppler factor
Unknown
Orbital elements
Apogee altitude
1,266.284 km
Perigee altitude
852.228 km
Semi-major axis
7,437.393 km
Eccentricity
0.02784
Inclination
103.011°
RAAN
167.7434°
Arg. of periapsis
327.781°
True anomaly
32.33313°
Mean anomaly
30.6568°
Eccentric anomaly
31.48989°
Mean motion
3.38386 °/min
Orbital period
106.39 mins
BSTAR
0.0010362
Loading maneuver chart data...
Computing Atmospheric mass density...

Documentation

Showing up to 5 results
|